Weather reports worldwide

Advertisment
Lander/Hunt, United States of America (72576): temperature & dewpoint: 06.12.2019 22:00:00 - 12.12.2019 22:00:00 (MST)Lander/Hunt, United States of America (72576): wind speed & gusts: 06.12.2019 22:00:00 - 12.12.2019 22:00:00 (MST)Lander/Hunt, United States of America (72576): wind direction: 06.12.2019 22:00:00 - 12.12.2019 22:00:00 (MST)Lander/Hunt, United States of America (72576): reduced air pressure: 06.12.2019 22:00:00 - 12.12.2019 22:00:00 (MST)Lander/Hunt, United States of America (72576): visibility: 06.12.2019 22:00:00 - 12.12.2019 22:00:00 (MST)Lander/Hunt, United States of America (72576): precipitation: 06.12.2019 22:00:00 - 12.12.2019 22:00:00 (MST)
Date & Time tt [°C] td [°C] ff [km/h] ff [kn] fx [km/h] fx [kn] dd ppp [hPa] vv [km] rr [mm]
12.12.2019 22:00:00 -3,9 -7,2 15 8 - - N 1016,6 16 -
12.12.2019 21:00:00 -2,8 -6,7 0 0 - - N 1016,6 16 -
12.12.2019 20:00:00 -1,7 -6,7 8 4 - - SSW 1016,8 16 -
12.12.2019 19:00:00 2,8 -6,7 21 11 65 35 NW 1015,4 16 -
12.12.2019 18:00:00 3,9 -7,2 16 9 - - NNW 1013,4 16 -
12.12.2019 17:00:00 3,9 -6,1 15 8 - - W 1012,6 16 -
12.12.2019 16:00:00 1,7 -5,6 13 7 - - WNW 1013,8 16 -
12.12.2019 15:00:00 2,2 -4,4 11 6 - - SE 1013,8 16 -
12.12.2019 14:00:00 2,2 -5,6 5 3 - - SE 1014,1 16 -
12.12.2019 13:00:00 2,8 -6,1 9 5 - - W 1014,1 16 -
12.12.2019 12:00:00 -1,1 -7,2 5 3 - - WNW 1015,6 16 -
12.12.2019 11:00:00 -1,7 -8,3 5 3 - - NNW 1016,2 16 -
12.12.2019 10:00:00 -5,0 -9,4 5 3 - - - 1017,4 16 -
12.12.2019 09:00:00 -6,1 -9,4 11 6 - - SE 1017,9 16 -
12.12.2019 08:00:00 -5,0 -8,9 0 0 - - N 1018,0 16 -
12.12.2019 07:00:00 -6,1 -9,4 13 7 - - NNW 1017,8 16 -
12.12.2019 06:00:00 -5,0 -8,9 0 0 - - N 1016,9 16 -
12.12.2019 05:00:00 -3,9 -8,3 15 8 - - WSW 1017,2 16 -
12.12.2019 04:00:00 -5,6 -9,4 13 7 - - W 1018,3 16 -
12.12.2019 03:00:00 -6,1 -10,0 9 5 - - ESE 1018,2 16 -
12.12.2019 02:00:00 -5,0 -8,9 5 3 - - - 1018,7 16 -
12.12.2019 01:00:00 -3,9 -8,9 8 4 - - W 1018,3 16 -
12.12.2019 00:00:00 -6,1 -10,0 9 5 - - NW 1019,3 16 -
11.12.2019 23:00:00 -5,0 -10,0 5 3 - - - 1019,7 16 -
11.12.2019 22:00:00 -3,9 -9,4 5 3 - - SSE 1020,1 16 -
11.12.2019 21:00:00 -4,4 -9,4 5 3 - - S 1019,8 16 -
11.12.2019 20:00:00 -6,1 -10,6 5 3 - - WSW 1020,1 16 -
11.12.2019 19:00:00 -5,0 -9,4 9 5 - - W 1020,2 16 -
11.12.2019 18:00:00 -4,4 -9,4 8 4 - - W 1019,2 16 -
11.12.2019 17:00:00 -5,0 -8,9 0 0 - - N 1019,0 16 -
11.12.2019 16:00:00 -4,4 -8,9 8 4 - - S 1018,5 16 -
11.12.2019 15:00:00 -2,8 -8,9 15 8 - - N 1017,9 16 -
11.12.2019 14:00:00 -5,6 -10,0 15 8 - - N 1018,7 16 -
11.12.2019 13:00:00 -5,6 -10,6 8 4 - - - 1019,0 16 -
11.12.2019 12:00:00 -6,1 -10,6 0 0 - - N 1019,7 16 -
11.12.2019 11:00:00 -7,8 -11,1 0 0 - - N 1021,4 16 -
11.12.2019 10:00:00 -11,1 -12,2 0 0 - - N 1021,9 16 -
11.12.2019 09:00:00 -10,0 -11,7 0 0 - - N 1022,0 16 -
11.12.2019 08:00:00 -11,7 -12,8 9 5 - - NNW 1022,6 13 -
11.12.2019 07:00:00 -11,7 -12,8 0 0 - - N 1022,8 16 -
11.12.2019 06:00:00 -11,1 -12,8 0 0 - - N 1022,9 15 -
11.12.2019 05:00:00 -10,6 -12,2 0 0 - - N 1023,7 16 -
11.12.2019 04:00:00 -8,9 -11,7 8 4 - - S 1023,5 16 -
11.12.2019 03:00:00 -10,6 -12,2 8 4 - - ESE 1024,5 16 -
11.12.2019 02:00:00 -9,4 -11,1 0 0 - - N 1024,2 16 -
11.12.2019 01:00:00 -9,4 -11,7 11 6 - - NW 1024,6 16 -
11.12.2019 00:00:00 -7,2 -10,6 0 0 - - N 1025,1 16 -
10.12.2019 23:00:00 -8,9 -11,7 9 5 - - WNW 1026,7 16 -
10.12.2019 22:00:00 -6,7 -10,6 5 3 - - SSE 1026,4 16 -
10.12.2019 21:00:00 -7,8 -11,1 8 4 - - ESE 1027,8 16 -
10.12.2019 20:00:00 -8,9 -11,7 0 0 - - N 1027,5 16 -
10.12.2019 19:00:00 -8,9 -10,6 9 5 - - WNW 1026,8 15 -
10.12.2019 18:00:00 -7,2 -10,6 0 0 - - N 1026,5 16 -
10.12.2019 17:00:00 -8,3 -11,1 0 0 - - N 1026,2 16 -
10.12.2019 16:00:00 -7,2 -11,1 0 0 - - N 1025,8 16 -
10.12.2019 15:00:00 -7,2 -11,7 5 3 - - NNE 1024,8 16 -
10.12.2019 14:00:00 -5,6 -11,1 0 0 - - N 1023,9 16 -
10.12.2019 13:00:00 -5,0 -12,2 0 0 - - N 1023,8 16 -
10.12.2019 12:00:00 -7,8 -12,8 5 3 - - NE 1023,9 16 -
10.12.2019 11:00:00 -10,0 -13,3 5 3 - - - 1025,3 16 -
10.12.2019 10:00:00 -10,6 -13,9 0 0 - - N 1025,7 16 -
10.12.2019 09:00:00 -13,3 -15,0 9 5 - - NNE 1025,6 16 -
10.12.2019 08:00:00 -10,6 -13,9 0 0 - - N 1023,9 16 -
10.12.2019 07:00:00 -8,3 -13,3 8 4 - - SE 1022,4 16 -
10.12.2019 06:00:00 -9,4 -13,3 5 3 - - N 1022,7 16 -
10.12.2019 05:00:00 -7,8 -13,3 11 6 - - SW 1021,5 16 -
10.12.2019 04:00:00 -9,4 -13,9 9 5 - - W 1022,1 16 -
10.12.2019 03:00:00 -8,9 -13,9 0 0 - - N 1021,1 16 -
10.12.2019 02:00:00 -8,9 -12,2 5 3 - - SE 1021,6 16 -
10.12.2019 01:00:00 -9,4 -12,2 8 4 - - SE 1021,9 16 -
10.12.2019 00:00:00 -5,0 -12,8 15 8 - - WSW 1021,1 16 -
09.12.2019 23:00:00 -6,1 -11,1 9 5 - - WNW 1021,3 16 -
09.12.2019 22:00:00 -8,9 -11,7 13 7 - - NW 1021,1 16 -
09.12.2019 21:00:00 -6,7 -10,0 5 3 - - E 1020,7 16 -
09.12.2019 20:00:00 -7,8 -9,4 0 0 - - N 1020,6 16 -
09.12.2019 19:00:00 -6,7 -9,4 0 0 - - N 1020,5 16 -
09.12.2019 18:00:00 -6,1 -8,9 5 3 - - S 1020,0 16 -
09.12.2019 17:00:00 -5,0 -7,8 0 0 - - N 1019,6 16 -
09.12.2019 16:00:00 -3,9 -8,3 8 4 - - NNW 1019,1 16 -
09.12.2019 15:00:00 -2,8 -7,8 5 3 - - E 1018,4 16 -
09.12.2019 14:00:00 -3,3 -7,8 5 3 - - E 1018,4 16 -
09.12.2019 13:00:00 -2,8 -7,2 0 0 - - N 1018,8 16 -
09.12.2019 12:00:00 -4,4 -7,2 0 0 - - N 1019,7 16 -
09.12.2019 11:00:00 -5,0 -7,8 0 0 - - N 1020,1 16 -
09.12.2019 10:00:00 -5,0 -7,2 0 0 - - N 1019,5 16 -
09.12.2019 09:00:00 -7,8 -8,3 0 0 - - N 1018,8 4,0 -
09.12.2019 08:00:00 -6,7 -7,8 8 4 - - W 1017,8 16 -
09.12.2019 07:00:00 -7,2 -7,8 9 5 - - N 1017,6 16 -
09.12.2019 06:00:00 -5,0 -6,7 5 3 - - WNW 1015,3 16 -
09.12.2019 05:00:00 -4,4 -6,7 0 0 - - N 1015,6 16 -
09.12.2019 04:00:00 -4,4 -6,1 9 5 - - SE 1014,9 16 -
09.12.2019 03:00:00 -4,4 -6,1 9 5 - - ESE 1015,2 16 -
09.12.2019 02:00:00 -4,4 -6,1 18 10 - - E 1015,3 16 -
09.12.2019 01:00:00 -3,9 -6,7 18 10 - - ESE 1015,3 16 -
09.12.2019 00:00:00 -3,9 -4,4 9 5 - - ENE 1015,1 16 -
08.12.2019 23:00:00 -3,3 -4,4 0 0 - - N 1013,3 16 0,0
08.12.2019 22:00:00 -2,8 -5,0 16 9 - - E 1013,1 16 -
08.12.2019 21:00:00 -1,7 -3,9 9 5 - - ENE 1012,8 16 -
08.12.2019 20:00:00 0,0 -3,9 11 6 - - N 1009,6 16 -
08.12.2019 19:00:00 0,6 -6,1 0 0 - - N 1008,0 16 -
08.12.2019 18:00:00 2,8 -7,2 8 4 - - WSW 1006,0 16 -
08.12.2019 17:00:00 0,6 -6,1 9 5 - - E 1005,9 16 -
08.12.2019 16:00:00 2,8 -4,4 0 0 - - N 1003,5 16 -
08.12.2019 15:00:00 2,2 -4,4 15 8 - - E 1002,6 16 -
08.12.2019 14:00:00 1,1 -3,9 9 5 - - - 1003,4 16 -
08.12.2019 13:00:00 0,0 -3,9 5 3 - - NE 1003,3 16 -
08.12.2019 12:00:00 -0,6 -3,9 13 7 - - SSW 1004,1 16 -
08.12.2019 11:00:00 2,8 -4,4 11 6 - - ESE 1002,8 16 -
08.12.2019 10:00:00 1,1 -3,9 0 0 - - N 1004,1 16 -
08.12.2019 09:00:00 -2,8 -5,6 13 7 - - S 1004,8 16 -
08.12.2019 08:00:00 0,0 -4,4 5 3 - - - 1004,0 16 -
08.12.2019 07:00:00 -2,2 -6,1 11 6 - - - 1005,6 16 -
08.12.2019 06:00:00 0,0 -5,0 8 4 - - N 1006,6 16 -
08.12.2019 05:00:00 -1,7 -5,6 13 7 - - WSW 1008,6 16 -
08.12.2019 04:00:00 1,1 -5,6 28 15 - - W 1007,2 16 -
08.12.2019 03:00:00 3,3 -5,6 18 10 - - NNW 1007,9 16 -
08.12.2019 02:00:00 2,2 -5,6 26 14 - - ENE 1007,8 16 -
08.12.2019 01:00:00 4,4 -5,0 - - - - - 1009,2 16 -
08.12.2019 00:00:00 3,9 -5,0 13 7 - - ENE 1011,3 16 -
07.12.2019 23:00:00 4,4 -5,0 8 4 - - - 1012,4 16 -
07.12.2019 22:00:00 6,1 -5,6 11 6 - - S 1012,9 16 -
07.12.2019 21:00:00 5,6 -6,1 11 6 - - ENE 1013,1 16 -
07.12.2019 20:00:00 5,0 -6,7 5 3 - - - 1014,2 16 -
07.12.2019 19:00:00 2,8 -6,7 8 4 - - S 1015,0 16 -
07.12.2019 18:00:00 0,6 -6,7 9 5 - - N 1017,0 16 -
07.12.2019 17:00:00 0,6 -6,1 8 4 - - - 1016,4 16 -
07.12.2019 16:00:00 2,8 -6,1 8 4 - - N 1016,7 16 -
07.12.2019 15:00:00 2,2 -5,0 5 3 - - - 1016,4 16 -
07.12.2019 14:00:00 2,8 -5,6 0 0 - - N 1016,8 16 -
07.12.2019 13:00:00 0,0 -6,7 9 5 - - SE 1017,0 16 -
07.12.2019 12:00:00 -2,8 -7,8 5 3 - - SE 1018,9 16 -
07.12.2019 11:00:00 -4,4 -8,9 11 6 - - NNW 1020,2 16 -
07.12.2019 10:00:00 -7,2 -10,0 0 0 - - N 1021,1 16 -
07.12.2019 09:00:00 -7,2 -9,4 5 3 - - NNW 1020,8 16 -
07.12.2019 08:00:00 -7,2 -9,4 9 5 - - S 1020,0 16 -
07.12.2019 07:00:00 -7,8 -10,0 13 7 - - N 1019,8 16 -
07.12.2019 06:00:00 -11,1 -12,2 8 4 - - N 1021,7 16 -
07.12.2019 05:00:00 -8,3 -10,6 9 5 - - NNW 1020,8 16 -
07.12.2019 04:00:00 -11,7 -12,8 5 3 - - - 1021,7 11 -
07.12.2019 03:00:00 -10,6 -11,7 11 6 - - W 1021,5 16 -
07.12.2019 02:00:00 -10,6 -11,1 11 6 - - - 1022,1 8 -
07.12.2019 01:00:00 -13,9 -15,0 8 4 - - - 1023,0 2,8 -
07.12.2019 00:00:00 -9,4 -11,1 5 3 - - W 1024,0 16 -
06.12.2019 23:00:00 -8,9 -10,6 9 5 - - W 1024,9 16 -
06.12.2019 22:00:00 -9,4 -11,1 0 0 - - N 1025,8 11 -

tt = temperature
td = dewpoint
ff = wind speed
fx = gusts
dd = wind direction
ppp = reduced air pressure
vv = visibility
rr = precipitation

Next stations